Location: Altavilla Irpina
(41.0000°N, 14.7833°E)
Time: 00:33:02
(UTC+00:00)

Cosmos 2218 Rocket - Pass Details

Date: 19 May 2025
Orbit: 955 x 1005 km, 82.9° (Epoch: 15 June)

Event Time Altitude Azimuth Distance (km) Brightness Sun altitude
Rises 20:34:39 0° 353° (N) 3,730 8.1 -20.6°
Reaches altitude 10° 20:37:12 10° 354° (N) 2,771 7.2 -20.9°
Maximum altitude 20:43:35 81° 82° (E) 1,003 3.9 -21.6°
Enters shadow 20:46:02 40° 165° (SSE) 1,410 4.3 -21.8°
